COSMOS 2067

导读

COSMOS 2067是苏联(CIS)于1990年4月6日8时发射的宇宙系列卫星,该卫星系列自1962年起持续发射,涵盖军事侦察、航天技术试验、科学探测等多种任务。作为冷战末期发射的卫星,它延续了该系列保密传统,主要承担航天技术验证或军事相关观测任务,是苏联航天体系中维持空间能力建设的常规发射任务一部分,体现了当时苏联持续推进空间领域部署的态势。

Basic Information
目录编号:
20552
目录名称:
COSMOS 2067
国际标识:
1990-029D
轨道中心:
EARTH
卫星名称:
COSMOS 2067
卫星全名:
--
卫星状态:
在轨 (已飞行13219 天)
发射日期:
1990-04-06 UTC
国别 :
俄罗斯(独联体) (CIS)
星等 :
--
Orbit Information
数据来源 国际轨道数据
星历时间: 2026-06-15T07:46:46+0800
7小时前
查看轨道信息
半长轴: 7809.605km
偏心率: 0.003991
轨道倾角: 73.983°
近地点辐角 163.660°
升交点赤经 13.658°
平近点角 267.764°
近地点: 1400.299km
远地点: 1462.637km
周期: 114.473分钟
每日圈数: 12.579379
Detailed Information
使用方式:
暂无
2D Orbit Map
3D Orbit Map
Orbit Altitude Analysis Chart
Orbit Inclination Analysis Chart
Orbit Comprehensive Analysis Chart
View Comprehensive Chart